カタログに戻る

STARLINK-30763

運用中通信VLEO
NORAD 58163·PAYLOAD·🇺🇸 United States

打ち上げ Oct 29, 2023 から Vandenberg Space Force Base

Loading…

次のパス (今後24時間)

TLE

最新Source: CelesTrak SupGP

元期: Sep 15, 2026, 02:56 UTC

1 58163C 23166P   26258.12270833 -.00016279  00000+0 -48105-3 0  2585
2 58163  53.1611  46.5204 0001145  83.2976 181.7599 15.34392601    14

AllMySatでSTARLINK-30763をリアルタイム追跡

Download on the App Store